Ponca City, OK

2:09 PM CDT on October 18, 2019 (GMT -0500)
Ponca City Municipal

Weather History for KPNC - September, 2019

Change the Weather History Date:

Saturday, September 21, 2019

  Actual Average Record
Temperature  
Mean Temperature 79 °F -  
Max Temperature 86 °F 83 °F 100 °F (1956)
Min Temperature 72 °F 58 °F 44 °F (2000)
Cooling Degree Days 14    
Growing Degree Days 29 (Base 50)    
Moisture  
Dew Point 70 °F    
Average Humidity 76    
Maximum Humidity 87    
Minimum Humidity 63    
Precipitation  
Precipitation 0.00 in - - ()
Sea Level Pressure  
Sea Level Pressure 29.91 in    
Wind  
Wind Speed 11 mph (SSE)    
Max Wind Speed 21 mph    
Max Gust Speed 29 mph    
Visibility 10 miles    
Events Rain    
Averages and records for this station are not official NWS values.
T = Trace of Precipitation, MM = Missing Value Source: NWS Daily Summary

Daily Weather History Graph

Daily Weather History Graph

Search for Another Location

Airport or City:

Astronomy

Sep. 21, 2019 Rise Set
Actual Time 7:15 AM CDT 7:27 PM CDT
Civil Twilight 6:49 AM CDT 7:52 PM CDT
Nautical Twilight 6:19 AM CDT 8:23 PM CDT
Astronomical Twilight 5:48 AM CDT 8:53 PM CDT
Moon No Moon Rise 2:12 PM CDT (9/21)
Length of Visible Light 13h 03m
Length of Day
12h 11m
Waning Gibbous, 54% of the Moon is Illuminated
Sep 21
Waning Gibbous
Sep 21
Last Quarter
Sep 28
New
Oct 5
First Quarter
Oct 13
Full

Hourly Weather History & Observations

Time (CDT) Temp. Heat Index Dew Point Humidity Pressure Visibility Wind Dir Wind Speed Gust Speed Precip Events Conditions
12:53 AM 73.9 °F - 68.0 °F 82% 29.91 in 10.0 mi SSE 9.2 mph 19.6 mph N/A   Clear
1:53 AM 73.0 °F - 69.1 °F 87% 29.91 in 10.0 mi SSE 12.7 mph 24.2 mph N/A   Partly Cloudy
2:53 AM 73.0 °F - 69.1 °F 87% 29.89 in 10.0 mi South 6.9 mph - N/A   Clear
3:53 AM 73.0 °F - 69.1 °F 87% 29.88 in 10.0 mi SSE 8.1 mph - N/A   Clear
4:53 AM 73.0 °F - 68.0 °F 84% 29.91 in 10.0 mi SSE 8.1 mph - N/A   Scattered Clouds
5:53 AM 72.0 °F - 68.0 °F 87% 29.92 in 10.0 mi SE 11.5 mph - N/A   Clear
6:29 AM 73.0 °F - 68.0 °F 84% 29.96 in 10.0 mi Variable 5.8 mph - N/A   Mostly Cloudy
6:53 AM 73.0 °F - 68.0 °F 84% 29.94 in 10.0 mi SSE 12.7 mph - N/A   Overcast
7:53 AM 73.9 °F - 69.1 °F 85% 29.94 in 10.0 mi SSE 15.0 mph - N/A   Mostly Cloudy
8:53 AM 75.9 °F - 70.0 °F 82% 29.95 in 10.0 mi South 9.2 mph 21.9 mph N/A   Overcast
9:53 AM 75.9 °F - 71.1 °F 85% 29.94 in 10.0 mi South 9.2 mph - N/A   Overcast
10:53 AM 78.1 °F - 71.1 °F 79% 29.95 in 10.0 mi South 9.2 mph 18.4 mph N/A   Overcast
11:53 AM 79.0 °F - 71.1 °F 77% 29.94 in 10.0 mi South 10.4 mph 19.6 mph N/A   Mostly Cloudy
12:05 PM 80.1 °F 83.6 °F 71.1 °F 74% 29.98 in 10.0 mi South 11.5 mph 19.6 mph N/A   Mostly Cloudy
12:53 PM 82.9 °F 87.5 °F 71.1 °F 67% 29.93 in 10.0 mi South 11.5 mph 20.7 mph N/A   Scattered Clouds
1:53 PM 82.9 °F 87.5 °F 71.1 °F 67% 29.91 in 10.0 mi South 9.2 mph 16.1 mph N/A   Mostly Cloudy
2:19 PM 80.1 °F 84.2 °F 73.0 °F 79% 29.95 in 10.0 mi South 6.9 mph - 0.00 in Rain Light Rain
2:53 PM 82.9 °F 88.8 °F 73.0 °F 72% 29.89 in 10.0 mi South 8.1 mph - 0.00 in   Overcast
3:53 PM 84.9 °F 90.7 °F 72.0 °F 65% 29.88 in 10.0 mi South 9.2 mph 20.7 mph N/A   Overcast
4:53 PM 86.0 °F 92.2 °F 72.0 °F 63% 29.86 in 10.0 mi South 10.4 mph 19.6 mph N/A   Overcast
6:53 PM 82.9 °F 87.5 °F 71.1 °F 67% 29.88 in 10.0 mi SSE 15.0 mph 21.9 mph N/A   Partly Cloudy
7:53 PM 81.0 °F 84.4 °F 70.0 °F 69% 29.88 in 10.0 mi SSE 18.4 mph 24.2 mph N/A   Clear
8:53 PM 80.1 °F 83.2 °F 70.0 °F 71% 29.88 in 10.0 mi SSE 15.0 mph 24.2 mph N/A   Partly Cloudy
9:53 PM 80.1 °F 82.9 °F 69.1 °F 69% 29.86 in 10.0 mi SSE 20.7 mph 27.6 mph N/A   Clear
10:53 PM 80.1 °F 82.9 °F 69.1 °F 69% 29.87 in 10.0 mi SSE 17.3 mph 28.8 mph N/A   Clear
11:53 PM 80.1 °F 82.7 °F 68.0 °F 67% 29.87 in 10.0 mi South 10.4 mph 20.7 mph N/A   Partly Cloudy